logo tempoitalia

Diretta Meteo Stavropol-Shpakovskoye, Russialunedì 31 agosto ore 08:00

Mappa
Sereno 17 °C Sereno 24 Ore: T.min 14 T.max 25
Ponente Sud-Est Km/h 28.8 Punto di rugiada: 11 °C Umidità: 67% Visibilità: 10 Km
Il sole sorge alle: 05:32 Il sole tramonta alle: 18:52
31 Agosto 2026 08:00 tempo osservato: Sereno Sereno 17 67 1019 vento: Nord SE 28.8
31 Agosto 2026 07:30 tempo osservato: Sereno Sereno 16 72 1019 vento: Nord SE 32.4
31 Agosto 2026 07:00 tempo osservato: Sereno Sereno 15 82 1019 vento: Nord E/SE 28.8
31 Agosto 2026 06:30 tempo osservato: Sereno Sereno 14 82 1019 vento: Nord E/SE 25.2
31 Agosto 2026 06:00 tempo osservato: Sereno Sereno 14 82 1019 vento: Nord E/SE 25.2
31 Agosto 2026 05:30 tempo osservato: Sereno Sereno 14 82 1019 vento: Nord E/SE 25.2
31 Agosto 2026 05:00 tempo osservato: Sereno Sereno 14 82 1019 vento: Nord E/SE 25.2
31 Agosto 2026 04:30 tempo osservato: Nuvoloso Nuvoloso 14 87 1019 vento: Nord E/SE 25.2
31 Agosto 2026 04:00 tempo osservato: Nuvoloso Nuvoloso 14 87 1019 vento: Nord E/SE 21.6
31 Agosto 2026 03:30 tempo osservato: Nuvoloso Nuvoloso 14 87 1019 vento: Nord E/SE 21.6
31 Agosto 2026 03:00 tempo osservato: Nuvoloso Nuvoloso 15 82 1019 vento: Nord E/SE 25.2
31 Agosto 2026 02:30 tempo osservato: Nuvoloso Nuvoloso 15 76 1019 vento: Nord E/SE 25.2
31 Agosto 2026 02:00 tempo osservato: Sereno Sereno 15 76 1019 vento: Nord E/SE 25.2
31 Agosto 2026 01:30 tempo osservato: Sereno Sereno 15 67 1019 vento: Nord E/SE 21.6
31 Agosto 2026 01:00 tempo osservato: Sereno Sereno 16 58 1019 vento: Nord E/SE 25.2
31 Agosto 2026 00:30 tempo osservato: Sereno Sereno 15 54 1018 vento: Nord E/SE 21.6
31 Agosto 2026 00:00 tempo osservato: Sereno Sereno 16 51 1018 vento: Nord E/SE 18
30 Agosto 2026 23:30 tempo osservato: Sereno Sereno 17 48 1018 vento: Nord E/SE 18
30 Agosto 2026 23:00 tempo osservato: Sereno Sereno 17 51 1018 vento: Nord E/SE 18
30 Agosto 2026 22:30 tempo osservato: Sereno Sereno 18 51 1018 vento: Nord SE 18
30 Agosto 2026 22:00 tempo osservato: Sereno Sereno 17 51 1019 vento: Nord SE 18
30 Agosto 2026 21:30 tempo osservato: Sereno Sereno 17 55 1019 vento: Nord SE 14.4
30 Agosto 2026 21:00 tempo osservato: Sereno Sereno 20 42 1019 vento: Nord SE 21.6
30 Agosto 2026 20:30 tempo osservato: Sereno Sereno 20 42 1019 vento: Nord S/SE 25.2
30 Agosto 2026 20:00 tempo osservato: Sereno Sereno 20 42 1019 vento: Nord S/SE 25.2
30 Agosto 2026 19:30 tempo osservato: Sereno Sereno 21 43 1019 vento: Nord SE 25.2
30 Agosto 2026 19:00 tempo osservato: Sereno Sereno 21 49 1018 vento: Nord SE 25.2
30 Agosto 2026 18:30 tempo osservato: Sereno Sereno 21 49 1018 vento: Nord SE 28.8
30 Agosto 2026 18:00 tempo osservato: Sereno Sereno 22 46 1018 vento: Nord SE 32.4
30 Agosto 2026 17:30 tempo osservato: Sereno Sereno 22 49 1018 vento: Nord S/SE 28.8
30 Agosto 2026 17:00 tempo osservato: Sereno Sereno 23 43 1018 vento: Nord SE 32.4
30 Agosto 2026 16:30 tempo osservato: Sereno Sereno 22 46 1018 vento: Nord SE 32.4
30 Agosto 2026 16:00 tempo osservato: Sereno Sereno 23 40 1018 vento: Nord SE 32.4
30 Agosto 2026 15:30 tempo osservato: Sereno Sereno 22 49 1018 vento: Nord SE 32.4
30 Agosto 2026 15:00 tempo osservato: Molto Nuvoloso Molto Nuvoloso 22 49 1018 vento: Nord S/SE 39.6
30 Agosto 2026 14:30 tempo osservato: Molto Nuvoloso Molto Nuvoloso 24 41 1018 vento: Nord SE 39.6
30 Agosto 2026 14:00 tempo osservato: Molto Nuvoloso Molto Nuvoloso 24 41 1018 vento: Nord SE 39.6
30 Agosto 2026 13:30 tempo osservato: Molto Nuvoloso Molto Nuvoloso 23 43 1018 vento: Nord SE 39.6
30 Agosto 2026 13:00 tempo osservato: Nuvoloso Nuvoloso 25 38 1018 vento: Nord SE 39.6
30 Agosto 2026 12:32 tempo osservato: Nuvoloso Nuvoloso 24 41 1018 vento: Nord SE 39.6
30 Agosto 2026 12:30 tempo osservato: Nuvoloso Nuvoloso 24 38 1018 vento: Nord SE 43.2
30 Agosto 2026 12:00 tempo osservato: Nuvoloso Nuvoloso 24 41 1019 vento: Nord SE 39.6
30 Agosto 2026 11:30 tempo osservato: Sereno Sereno 24 41 1019 vento: Nord E/SE 39.6
30 Agosto 2026 11:00 tempo osservato: Sereno Sereno 23 40 1019 vento: Nord SE 36
30 Agosto 2026 10:33 tempo osservato: Sereno Sereno 23 40 1019 vento: Nord SE 36
30 Agosto 2026 10:30 tempo osservato: Sereno Sereno 22 43 1019 vento: Nord E/SE 39.6
30 Agosto 2026 10:00 tempo osservato: Sereno Sereno 22 40 1019 vento: Nord E/SE 36
30 Agosto 2026 09:30 tempo osservato: Sereno Sereno 21 40 1019 vento: Nord E/SE 32.4
30 Agosto 2026 09:00 tempo osservato: Sereno Sereno 20 42 1019 vento: Nord E/SE 32.4